This is the latest recevied weather packets stored in our database for station/object 4S6DRJ-13. If no packets are shown the sender has not sent any weather packets the latest 10 day(s).
| Time | Temp. | Humidity | Pressure | Rain* | Wind** | Luminosity | Snow |
|---|---|---|---|---|---|---|---|
| 1787645766 | 30° C | 76% | 1009.2 hPa | 0 mm | 2.24 m/s, 214° | 397 W/m² | - |
| 1787645704 | 30° C | 77% | 1009.2 hPa | 0 mm | 1.79 m/s, 173° | 483 W/m² | - |
| 1787645643 | 30° C | 78% | 1009.3 hPa | 0 mm | 2.24 m/s, 42° | 1116 W/m² | - |
| 1787645582 | 30° C | 77% | 1009.2 hPa | 0 mm | 1.79 m/s, 267° | 1106 W/m² | - |
| 1787645521 | 29.44° C | 77% | 1009.2 hPa | 0 mm | 2.68 m/s, 234° | 959 W/m² | - |
| 1787645460 | 29.44° C | 78% | 1009.1 hPa | 0 mm | 1.79 m/s, 235° | 1124 W/m² | - |
| 1787645399 | 29.44° C | 77% | 1009.1 hPa | 0 mm | 2.68 m/s, 292° | 821 W/m² | - |
| 1787645338 | 29.44° C | 77% | 1009.3 hPa | 0 mm | 2.68 m/s, 135° | 605 W/m² | - |
| 1787645277 | 29.44° C | 77% | 1009.4 hPa | 0 mm | 2.24 m/s, 27° | 535 W/m² | - |
| 1787645216 | 29.44° C | 77% | 1009.1 hPa | 0 mm | 1.34 m/s, 196° | 634 W/m² | - |
| 1787645155 | 29.44° C | 76% | 1009.3 hPa | 0 mm | 2.68 m/s, 262° | 458 W/m² | - |
| 1787645094 | 29.44° C | 76% | 1009.5 hPa | 0 mm | 1.79 m/s, 11° | 394 W/m² | - |
| 1787645033 | 29.44° C | 75% | 1009.4 hPa | 0 mm | 3.13 m/s, 359° | 380 W/m² | - |
| 1787644972 | 30° C | 75% | 1009.3 hPa | 0 mm | 2.68 m/s, 329° | 422 W/m² | - |
| 1787644911 | 30° C | 74% | 1009.4 hPa | 0 mm | 3.13 m/s, 223° | 420 W/m² | - |
| 1787644850 | 30° C | 74% | 1009.4 hPa | 0 mm | 4.02 m/s, 334° | 473 W/m² | - |
| 1787644789 | 30° C | 74% | 1009.5 hPa | 0.25 mm | 3.58 m/s, 262° | 455 W/m² | - |
| 1787644729 | 30° C | 73% | 1009.5 hPa | 0.25 mm | 2.24 m/s, 196° | 456 W/m² | - |
| 1787644667 | 30° C | 73% | 1009.4 hPa | 0.25 mm | 3.13 m/s, 242° | 463 W/m² | - |
| 1787644606 | 30.56° C | 73% | 1009.3 hPa | 0.25 mm | 3.13 m/s, 311° | 527 W/m² | - |
| 1787644545 | 30.56° C | 72% | 1009.6 hPa | 0.25 mm | 2.68 m/s, 256° | 597 W/m² | - |
| 1787644484 | 30.56° C | 73% | 1009.2 hPa | 0.25 mm | 1.34 m/s, 254° | 452 W/m² | - |
| 1787644423 | 30.56° C | 73% | 1009.6 hPa | 0.25 mm | 2.68 m/s, 235° | 476 W/m² | - |
| 1787644362 | 30.56° C | 73% | 1009.4 hPa | 0.25 mm | 1.79 m/s, 112° | 1128 W/m² | - |
| 1787644301 | 30.56° C | 72% | 1009.3 hPa | 0.25 mm | 3.13 m/s, 255° | 518 W/m² | - |
* Rain latest hour (hover to see other rain measurements)
** Current wind speed in m/s (hover to see current wind gust speed)